This demonstration page uses our WeatherBlox Daily Observations layout. Learn more.

Left ArrowRight Arrow

Hourly Observations for January 26, 2022

Temp ( °F °C ) Dew Point ( °F °C ) Humidity (%) Winds ( mph kmh ) Pressure ( in mb ) Visibility ( mi km ) Precip ( " mm )
12:52 am 00:52 Clear 16 -8.9 4 -15.6 59 59 N 8 13 30.50 1033 10 16 0.00 0.00
1:52 am 01:52 Clear 15 -9.4 4 -15.6 61 61 N 6 9 30.51 1033 10 16 0.00 0.00
2:52 am 02:52 Clear 14 -10 4 -15.6 64 64 N 7 11 30.51 1033 10 16 0.00 0.00
3:52 am 03:52 Clear 13 -10.6 5 -15 70 70 NNE 6 9 30.50 1033 10 16 0.00 0.00
4:52 am 04:52 Clear 13 -10.6 4 -15.6 67 67 NE 6 9 30.49 1033 10 16 0.00 0.00
5:52 am 05:52 Clear 13 -10.6 4 -15.6 67 67 ENE 5 7 30.50 1033 10 16 0.00 0.00
6:52 am 06:52 Clear 13 -10.6 3 -16.1 64 64 E 7 11 30.51 1033 10 16 0.00 0.00
7:52 am 07:52 Sunny 14 -10 4 -15.6 64 64 E 5 7 30.53 1034 10 16 0.00 0.00
8:52 am 08:52 Sunny 16 -8.9 3 -16.1 56 56 E 9 15 30.51 1033 10 16 0.00 0.00
9:52 am 09:52 Mostly Sunny 20 -6.7 1 -17.2 43 43 SE 8 13 30.50 1033 10 16 0.00 0.00
10:52 am 10:52 Partly Cloudy 24 -4.4 -2 -18.9 32 32 SSE 3 6 30.49 1033 10 16 0.00 0.00
11:52 am 11:52 Partly Cloudy 27 -2.8 -1 -18.3 29 29 VRB 5 7 30.46 1032 10 16 0.00 0.00
12:52 pm 12:52 Cloudy 30 -1.1 0 -17.8 27 27 SSE 9 15 30.41 1030 10 16 0.00 0.00
1:52 pm 13:52 Sunny 31 -0.6 -1 -18.3 25 25 VRB 7 11 30.37 1029 10 16 0.00 0.00
2:52 pm 14:52 Sunny 31 -0.6 0 -17.8 26 26 SSW 8 13 30.36 1028 10 16 0.00 0.00
3:52 pm 15:52 Cloudy 30 -1.1 2 -16.7 30 30 S 6 9 30.35 1028 10 16 0.00 0.00
4:52 pm 16:52 Cloudy 30 -1.1 2 -16.7 30 30 S 7 11 30.34 1028 10 16 0.00 0.00
5:52 pm 17:52 Cloudy 29 -1.7 4 -15.6 34 34 SSE 7 11 30.34 1027 10 16 0.00 0.00
6:52 pm 18:52 Cloudy 29 -1.7 3 -16.1 33 33 SSE 9 15 30.33 1027 10 16 0.00 0.00
7:52 pm 19:52 Cloudy 29 -1.7 3 -16.1 33 33 S 9 15 30.33 1027 10 16 0.00 0.00
8:52 pm 20:52 Cloudy 29 -1.7 4 -15.6 34 34 SSE 8 13 30.32 1027 10 16 0.00 0.00
9:52 pm 21:52 Cloudy 29 -1.7 4 -15.6 34 34 S 9 15 30.32 1027 10 16 0.00 0.00
10:52 pm 22:52 Cloudy 29 -1.7 6 -14.4 38 38 SSE 12 19 30.30 1026 10 16 0.00 0.00
11:52 pm 23:52 Cloudy 29 -1.7 6 -14.4 38 38 S 13 20 30.29 1026 10 16 0.00 0.00

Powered by AerisWeather